TimeEDT,TemperatureF,Dew PointF,Humidity,Sea Level PressureIn,VisibilityMPH,Wind Direction,Wind SpeedMPH,Gust SpeedMPH,PrecipitationIn,Events,Conditions,WindDirDegrees,DateUTC
12:53 AM,75.9,71.1,85,30.08,10.0,NNE,3.5,-,N/A,,Mostly Cloudy,30,2013-04-21 04:53:00
1:53 AM,75.9,72.0,87,30.07,10.0,North,4.6,-,N/A,,Mostly Cloudy,360,2013-04-21 05:53:00
2:22 AM,75.2,71.6,89,30.06,10.0,NNW,5.8,-,N/A,,Overcast,330,2013-04-21 06:22:00
2:34 AM,75.2,71.6,89,30.05,10.0,NNW,5.8,-,N/A,,Mostly Cloudy,330,2013-04-21 06:34:00
2:53 AM,75.0,72.0,90,30.05,10.0,NW,3.5,-,N/A,,Mostly Cloudy,320,2013-04-21 06:53:00
3:53 AM,75.0,72.0,90,30.05,10.0,Calm,Calm,-,N/A,,Mostly Cloudy,0,2013-04-21 07:53:00
4:31 AM,75.2,71.6,89,30.03,10.0,NNE,3.5,-,N/A,,Mostly Cloudy,20,2013-04-21 08:31:00
4:41 AM,75.2,71.6,89,30.03,10.0,ENE,3.5,-,N/A,,Mostly Cloudy,60,2013-04-21 08:41:00
4:53 AM,73.6,72.5,96,30.02,10.0,NNE,3.5,-,N/A,,Overcast,30,2013-04-21 08:53:00
5:53 AM,73.9,72.9,96,30.02,10.0,Calm,Calm,-,N/A,,Overcast,0,2013-04-21 09:53:00
6:53 AM,73.9,72.0,93,30.05,10.0,Calm,Calm,-,N/A,,Mostly Cloudy,0,2013-04-21 10:53:00
7:51 AM,73.4,71.6,94,30.07,10.0,NNW,5.8,-,N/A,,Overcast,340,2013-04-21 11:51:00
7:53 AM,73.9,72.0,93,30.08,10.0,NNW,6.9,-,N/A,,Overcast,340,2013-04-21 11:53:00
8:53 AM,73.9,71.1,91,30.09,10.0,Variable,4.6,-,N/A,,Mostly Cloudy,0,2013-04-21 12:53:00
9:53 AM,78.1,71.1,79,30.09,10.0,North,3.5,-,N/A,,Mostly Cloudy,360,2013-04-21 13:53:00
10:53 AM,82.9,72.0,69,30.09,10.0,ENE,6.9,-,N/A,,Scattered Clouds,60,2013-04-21 14:53:00
11:53 AM,82.9,71.1,67,30.10,10.0,ENE,12.7,-,N/A,,Mostly Cloudy,70,2013-04-21 15:53:00
12:53 PM,82.9,70.0,65,30.09,10.0,ESE,19.6,-,N/A,,Mostly Cloudy,110,2013-04-21 16:53:00
1:53 PM,84.9,64.9,51,30.07,10.0,ESE,17.3,-,N/A,,Mostly Cloudy,110,2013-04-21 17:53:00
2:53 PM,84.0,71.1,65,30.05,10.0,SE,12.7,-,N/A,,Mostly Cloudy,130,2013-04-21 18:53:00
3:53 PM,81.0,71.1,72,30.01,10.0,SE,12.7,-,N/A,,Mostly Cloudy,130,2013-04-21 19:53:00
4:53 PM,78.1,71.1,79,30.01,10.0,SSE,9.2,19.6,N/A,,Overcast,150,2013-04-21 20:53:00
5:53 PM,78.1,70.0,76,30.03,10.0,South,6.9,-,0.00,Rain,Light Rain,170,2013-04-21 21:53:00
6:53 PM,78.1,71.1,79,30.05,10.0,South,3.5,-,0.00,,Overcast,180,2013-04-21 22:53:00
7:53 PM,77.0,69.1,76,30.05,10.0,Calm,Calm,-,N/A,,Overcast,0,2013-04-21 23:53:00
8:53 PM,77.0,70.0,79,30.04,10.0,Calm,Calm,-,N/A,,Overcast,0,2013-04-22 00:53:00
9:53 PM,77.0,70.0,79,30.06,10.0,South,4.6,-,N/A,,Overcast,190,2013-04-22 01:53:00
10:53 PM,78.1,70.0,76,30.05,10.0,ESE,6.9,-,N/A,,Overcast,110,2013-04-22 02:53:00
11:53 PM,78.1,71.1,79,30.06,10.0,ESE,3.5,-,N/A,,Overcast,120,2013-04-22 03:53:00